#�ϑ�����,���ϕ���,���ϕ���,�ő啗��,�ő啗����������,�ő�u�ԕ���,�ő�u�ԕ�����������
#(�N����),(m/s)   ,(16����),(m/s)   ,(16����)        ,(m/s)       ,(16����)            
2016/3/25 0:01,4,15,4,16,10.1,16
2016/3/25 0:02,3.8,15,3.9,16,10.8,14
2016/3/25 0:03,3.9,15,4,16,9.8,15
2016/3/25 0:04,3.9,15,4,15,5.4,1
2016/3/25 0:05,4.2,15,4.2,15,16.3,16
2016/3/25 0:06,4.4,15,4.4,15,13.1,16
2016/3/25 0:07,4.5,15,4.5,15,6.1,1
2016/3/25 0:08,4.4,16,4.5,15,5.1,1
2016/3/25 0:09,4.5,16,4.5,15,9,16
2016/3/25 0:10,4.4,16,4.6,16,7,14
2016/3/25 0:11,4.3,16,4.3,16,7,15
2016/3/25 0:12,4.6,16,4.6,16,9.5,1
2016/3/25 0:13,4.6,16,4.6,16,8.6,16
2016/3/25 0:14,5,16,5,16,13,15
2016/3/25 0:15,4.7,16,5.1,16,7.8,2
2016/3/25 0:16,4.4,16,4.6,16,9.9,16
2016/3/25 0:17,4.6,16,4.6,16,11.8,13
2016/3/25 0:18,4.9,15,4.9,16,12.1,12
2016/3/25 0:19,4.9,15,5,16,5.5,16
2016/3/25 0:20,4.8,15,4.9,16,5.6,16
2016/3/25 0:21,5,15,5,16,11.8,16
2016/3/25 0:22,5,15,5,16,12.4,16
2016/3/25 0:23,5.3,15,5.3,15,13.4,15
2016/3/25 0:24,5.2,15,5.4,15,8.6,15
2016/3/25 0:25,5.3,15,5.3,15,11.6,16
2016/3/25 0:26,5.5,15,5.5,15,11.9,16
2016/3/25 0:27,5.2,15,5.5,15,6.3,15
2016/3/25 0:28,5.1,16,5.2,15,10.9,14
2016/3/25 0:29,5.1,15,5.2,15,6.2,12
2016/3/25 0:30,5.5,15,5.5,15,9.2,15
2016/3/25 0:31,5.6,15,5.8,15,12.8,15
2016/3/25 0:32,5.4,15,5.6,15,8.1,16
2016/3/25 0:33,5.2,15,5.3,15,12.2,15
2016/3/25 0:34,5.1,15,5.2,15,8.7,14
2016/3/25 0:35,5.3,15,5.4,15,11.8,15
2016/3/25 0:36,5.3,15,5.4,15,10.7,14
2016/3/25 0:37,5.1,15,5.2,15,4.8,16
2016/3/25 0:38,4.8,15,5.1,15,3.9,15
2016/3/25 0:39,5,15,5,15,8.7,14
2016/3/25 0:40,4.8,15,5,15,6.3,14
2016/3/25 0:41,4.5,15,4.7,15,10,16
2016/3/25 0:42,4.8,15,4.8,15,13,15
2016/3/25 0:43,4.8,15,5,15,14.1,16
2016/3/25 0:44,4.6,15,4.7,15,5.5,16
2016/3/25 0:45,4.4,15,4.6,15,7.8,13
2016/3/25 0:46,4.2,15,4.4,15,8.9,13
2016/3/25 0:47,4.2,15,4.3,15,3.8,9
2016/3/25 0:48,4,14,4.2,15,1.4,7
2016/3/25 0:49,3.7,14,4,15,2.6,16
2016/3/25 0:50,3.6,14,3.7,15,7.4,12
2016/3/25 0:51,3.5,14,3.6,15,4.2,15
2016/3/25 0:52,2.9,14,3.4,15,5.5,1
2016/3/25 0:53,2.7,14,2.9,15,4.5,16
2016/3/25 0:54,2.5,14,2.7,15,4.8,15
2016/3/25 0:55,2.4,13,2.5,15,7,14
2016/3/25 0:56,2.3,14,2.3,15,6.1,14
2016/3/25 0:57,2.6,14,2.6,15,7.5,15
2016/3/25 0:58,3,15,3,14,8.2,16
2016/3/25 0:59,3.5,15,3.5,14,10.7,15
2016/3/25 1:00,3.8,15,3.8,15,12.1,16
2016/3/25 1:01,4,15,4,15,9.9,15
2016/3/25 1:02,3.9,15,4,15,4.3,15
2016/3/25 1:03,3.7,15,3.9,15,2.6,16
2016/3/25 1:04,3.7,15,3.7,15,4.5,1
2016/3/25 1:05,3.8,15,3.8,15,6.7,15
2016/3/25 1:06,4,15,4,15,7.9,16
2016/3/25 1:07,3.9,15,4,15,6.8,15
2016/3/25 1:08,3.8,15,3.9,15,5.8,14
2016/3/25 1:09,3.6,15,3.8,15,6.2,16
2016/3/25 1:10,3.6,15,3.7,15,9.7,15
2016/3/25 1:11,3.6,15,3.6,15,8.4,16
2016/3/25 1:12,3.9,15,3.9,15,10,16
2016/3/25 1:13,4.1,15,4.1,15,7.2,14
2016/3/25 1:14,4.8,15,4.8,15,14.7,15
2016/3/25 1:15,4.8,15,4.8,15,5.2,13
2016/3/25 1:16,4.8,15,4.8,15,6.9,14
2016/3/25 1:17,5.1,15,5.2,15,10.8,15
2016/3/25 1:18,5.1,15,5.2,15,6.5,16
2016/3/25 1:19,4.9,15,5.1,15,3.2,16
2016/3/25 1:20,4.6,15,4.8,15,6,14
2016/3/25 1:21,4.4,15,4.6,15,4.7,12
2016/3/25 1:22,4.2,14,4.3,15,4.3,12
2016/3/25 1:23,4,14,4.2,15,3.1,11
2016/3/25 1:24,3.3,14,4,15,1.6,10
2016/3/25 1:25,3.2,14,3.3,15,5,14
2016/3/25 1:26,3,14,3.2,15,6,15
2016/3/25 1:27,2.9,14,3.1,15,7.8,15
2016/3/25 1:28,2.9,14,2.9,15,6,16
2016/3/25 1:29,3.2,14,3.2,15,8.7,16
2016/3/25 1:30,3.1,14,3.2,15,5.4,16
2016/3/25 1:31,3.3,14,3.3,15,8.2,15
2016/3/25 1:32,3.5,15,3.5,14,7,1
2016/3/25 1:33,3.5,15,3.5,14,4.9,15
2016/3/25 1:34,3.7,15,3.7,15,5.2,15
2016/3/25 1:35,3.6,15,3.7,15,4.8,14
2016/3/25 1:36,3.7,15,3.7,15,10.1,16
2016/3/25 1:37,3.7,16,3.8,15,8.6,1
2016/3/25 1:38,3.7,16,3.7,15,9.2,16
2016/3/25 1:39,3.7,15,3.9,16,12.4,14
2016/3/25 1:40,4.1,16,4.1,16,10.9,15
2016/3/25 1:41,4.2,16,4.2,16,9.8,16
2016/3/25 1:42,4.2,15,4.2,16,8.3,16
2016/3/25 1:43,4.2,15,4.2,16,4.9,15
2016/3/25 1:44,4.2,15,4.3,15,2.7,15
2016/3/25 1:45,4.1,15,4.2,15,5.2,16
2016/3/25 1:46,4,16,4.1,15,5.2,16
2016/3/25 1:47,3.9,15,4,15,7.7,15
2016/3/25 1:48,3.9,15,4,15,7.9,14
2016/3/25 1:49,4,15,4,15,8.2,15
2016/3/25 1:50,3.8,15,4,15,8.9,15
2016/3/25 1:51,3.6,15,3.8,15,6.1,1
2016/3/25 1:52,3.5,15,3.6,15,6.4,16
2016/3/25 1:53,3.6,15,3.6,15,7.4,15
2016/3/25 1:54,3.9,15,3.9,15,6.5,1
2016/3/25 1:55,4.2,15,4.2,15,9.1,14
2016/3/25 1:56,4.5,15,4.5,15,11.1,15
2016/3/25 1:57,4.7,15,4.7,15,11.5,15
2016/3/25 1:58,4.5,16,4.7,15,4.2,15
2016/3/25 1:59,4.2,16,4.5,15,4.2,16
2016/3/25 2:00,4.1,16,4.2,15,7.1,16
2016/3/25 2:01,4.2,16,4.3,15,7.5,16
2016/3/25 2:02,4.2,16,4.3,15,6.4,16
2016/3/25 2:03,4.2,16,4.2,15,5.6,15
2016/3/25 2:04,4.2,16,4.2,15,5.8,16
2016/3/25 2:05,3.8,16,4.2,15,4.2,15
2016/3/25 2:06,3.3,16,3.8,15,2,2
2016/3/25 2:07,3,16,3.3,15,5.5,1
2016/3/25 2:08,3.1,16,3.1,16,5.8,1
2016/3/25 2:09,3.3,16,3.3,16,7.5,1
2016/3/25 2:10,3.3,16,3.3,16,5.7,16
2016/3/25 2:11,3.2,16,3.2,16,5.4,16
2016/3/25 2:12,3.2,16,3.2,16,8.5,15
2016/3/25 2:13,3.2,16,3.3,16,7,16
2016/3/25 2:14,3.1,16,3.2,16,4.7,14
2016/3/25 2:15,3.6,15,3.6,16,11.4,14
2016/3/25 2:16,4.2,16,4.2,16,10.5,16
2016/3/25 2:17,4.5,15,4.5,16,10.2,16
2016/3/25 2:18,4.6,15,4.6,15,5.7,15
2016/3/25 2:19,4.3,15,4.6,15,3.9,15
2016/3/25 2:20,4.1,15,4.3,15,3.2,12
2016/3/25 2:21,4.1,15,4.1,15,6.9,16
2016/3/25 2:22,4,15,4.2,15,6.8,15
2016/3/25 2:23,4.1,15,4.1,15,7.4,1
2016/3/25 2:24,4.3,15,4.3,15,7.6,1
2016/3/25 2:25,3.9,15,4.3,15,6.3,1
2016/3/25 2:26,3.7,15,3.9,15,7.6,15
2016/3/25 2:27,3.3,15,3.7,15,4.3,2
2016/3/25 2:28,3.2,16,3.3,15,4.4,1
2016/3/25 2:29,3.3,16,3.3,15,6.3,1
2016/3/25 2:30,3.4,16,3.4,15,5.4,2
2016/3/25 2:31,3.4,16,3.5,15,7,1
2016/3/25 2:32,3.5,16,3.5,15,7.4,16
2016/3/25 2:33,3.5,16,3.6,15,9,16
2016/3/25 2:34,3.3,16,3.5,15,3.8,16
2016/3/25 2:35,3.4,16,3.4,15,8.4,14
2016/3/25 2:36,3.4,16,3.5,15,7.4,15
2016/3/25 2:37,3.5,16,3.5,16,7,1
2016/3/25 2:38,3.9,16,3.9,16,9.7,14
2016/3/25 2:39,4,16,4,16,5.8,15
2016/3/25 2:40,4.1,16,4.1,16,6.2,16
2016/3/25 2:41,4.1,16,4.1,16,6,16
2016/3/25 2:42,3.9,16,4,16,4.9,16
2016/3/25 2:43,3.7,16,3.9,16,4.7,2
2016/3/25 2:44,3.7,16,3.7,16,5,2
2016/3/25 2:45,3.5,16,3.7,16,3.9,1
2016/3/25 2:46,3.3,16,3.5,16,3.9,16
2016/3/25 2:47,3.3,16,3.4,16,8.9,1
2016/3/25 2:48,3,16,3.3,16,5.5,15
2016/3/25 2:49,3,16,3,16,7.1,16
2016/3/25 2:50,3.3,16,3.3,16,14.1,16
2016/3/25 2:51,3.7,16,3.7,16,14.2,15
2016/3/25 2:52,3.6,16,3.7,16,4.8,15
2016/3/25 2:53,4,16,4,16,8.5,1
2016/3/25 2:54,4.4,16,4.4,16,9.9,15
2016/3/25 2:55,4.6,16,4.6,16,9.9,14
2016/3/25 2:56,4.9,16,4.9,16,9.2,16
2016/3/25 2:57,5,15,5,15,7.2,16
2016/3/25 2:58,5.1,15,5.1,15,8.5,13
2016/3/25 2:59,5.4,15,5.4,15,12.8,15
2016/3/25 3:00,5.4,15,5.6,15,10.3,1
2016/3/25 3:01,5.4,15,5.4,15,11.6,16
2016/3/25 3:02,5.7,15,5.7,15,9.5,16
2016/3/25 3:03,5.8,15,5.8,15,11.4,16
2016/3/25 3:04,5.7,15,5.8,15,8.4,16
2016/3/25 3:05,5.6,16,5.7,15,9.1,1
2016/3/25 3:06,5.6,16,5.6,15,7.6,16
2016/3/25 3:07,5.6,16,5.6,15,5.2,16
2016/3/25 3:08,5.6,16,5.6,15,9.1,13
2016/3/25 3:09,5.6,16,5.7,15,10.9,16
2016/3/25 3:10,5.4,16,5.6,15,9,16
2016/3/25 3:11,5.3,16,5.4,15,10.6,15
2016/3/25 3:12,5.4,16,5.4,15,10.2,16
2016/3/25 3:13,5.5,16,5.5,15,11.1,16
2016/3/25 3:14,5.6,15,5.6,15,10.6,14
2016/3/25 3:15,5.5,15,5.6,16,5.7,14
2016/3/25 3:16,5.5,15,5.5,16,6.1,12
2016/3/25 3:17,5.6,14,5.6,16,8.9,14
2016/3/25 3:18,5.6,15,5.6,16,8.7,16
2016/3/25 3:19,5.4,15,5.6,16,10,1
2016/3/25 3:20,5.2,15,5.4,16,5.6,1
2016/3/25 3:21,5.1,15,5.2,16,9.9,16
2016/3/25 3:22,4.8,15,5,16,9.4,15
2016/3/25 3:23,4.7,15,4.8,16,11.6,15
2016/3/25 3:24,4.7,15,4.7,15,11.9,16
2016/3/25 3:25,4.7,15,4.7,14,7.1,15
2016/3/25 3:26,4.7,15,4.8,14,6.4,15
2016/3/25 3:27,4.6,16,4.7,14,6.5,16
2016/3/25 3:28,4.5,15,4.6,15,10.3,14
2016/3/25 3:29,4.7,15,4.7,15,11,16
2016/3/25 3:30,5.2,15,5.2,15,11.3,16
2016/3/25 3:31,5,15,5.1,15,6.1,14
2016/3/25 3:32,4.8,15,5.1,15,7,15
2016/3/25 3:33,4.3,15,4.8,15,3,15
2016/3/25 3:34,3.8,15,4.3,15,2.4,1
2016/3/25 3:35,3.7,15,3.8,15,6,15
2016/3/25 3:36,3.8,16,3.8,15,8.2,16
2016/3/25 3:37,3.9,16,4,15,5.6,15
2016/3/25 3:38,3.5,16,3.9,15,2.5,16
2016/3/25 3:39,3,16,3.4,15,3.5,4
2016/3/25 3:40,2.5,16,3,15,3,12
2016/3/25 3:41,2.6,16,2.6,15,9.4,16
2016/3/25 3:42,2.9,16,2.9,15,9.5,16
2016/3/25 3:43,3.1,16,3.1,15,6.7,16
2016/3/25 3:44,3.2,16,3.3,15,4.2,15
2016/3/25 3:45,3,16,3.2,15,2.7,14
2016/3/25 3:46,2.6,15,3,15,2.1,13
2016/3/25 3:47,2.3,15,2.6,16,2.1,16
2016/3/25 3:48,2.4,15,2.4,16,3.2,1
2016/3/25 3:49,2.6,15,2.6,16,7.7,15
2016/3/25 3:50,2.8,15,2.8,16,7.9,15
2016/3/25 3:51,2.8,15,2.9,16,6.8,15
2016/3/25 3:52,2.4,15,2.7,16,3.1,1
2016/3/25 3:53,2.2,14,2.3,16,5,10
2016/3/25 3:54,2.4,14,2.4,16,6.4,10
2016/3/25 3:55,2.4,14,2.4,16,3.1,9
2016/3/25 3:56,2.5,14,2.5,15,3.9,1
2016/3/25 3:57,2.7,15,2.7,15,6.5,16
2016/3/25 3:58,3.1,15,3.1,15,10.3,15
2016/3/25 3:59,3.4,15,3.4,15,9.1,15
2016/3/25 4:00,3.4,15,3.5,15,7.5,15
2016/3/25 4:01,3.3,15,3.4,15,4.2,15
2016/3/25 4:02,3.3,15,3.3,15,2.7,15
2016/3/25 4:03,3.4,15,3.4,15,4.3,16
2016/3/25 4:04,3.3,15,3.4,15,4.2,1
2016/3/25 4:05,3.4,15,3.4,15,4.1,15
2016/3/25 4:06,3.7,16,3.7,16,7,1
2016/3/25 4:07,3.6,16,3.6,16,4.4,1
2016/3/25 4:08,3.1,16,3.5,16,3,16
2016/3/25 4:09,2.5,16,3,16,2,1
2016/3/25 4:10,2.1,16,2.5,16,1.5,5
2016/3/25 4:11,2.1,16,2.1,16,3.3,15
2016/3/25 4:12,2.2,16,2.2,16,5.8,15
2016/3/25 4:13,2.3,16,2.3,16,5.5,16
2016/3/25 4:14,2.2,16,2.3,16,3.1,13
2016/3/25 4:15,2.1,15,2.2,16,2.4,13
2016/3/25 4:16,1.8,15,2.1,16,1.5,10
2016/3/25 4:17,1.6,15,1.7,16,2.2,4
2016/3/25 4:18,1.7,16,1.7,16,3.7,3
2016/3/25 4:19,1.8,16,1.8,16,5.1,1
2016/3/25 4:20,2.1,16,2.1,16,4.4,3
2016/3/25 4:21,2.3,16,2.3,16,6.9,16
2016/3/25 4:22,2.4,16,2.4,16,7.9,16
2016/3/25 4:23,2.2,16,2.3,16,5.1,14
2016/3/25 4:24,2.4,1,2.4,16,8.3,16
2016/3/25 4:25,2.6,1,2.6,1,8.2,1
2016/3/25 4:26,3,1,3,1,7.5,15
2016/3/25 4:27,3.3,16,3.3,16,6.2,1
2016/3/25 4:28,3.4,16,3.4,16,5.8,16
2016/3/25 4:29,3.7,16,3.7,16,9.3,16
2016/3/25 4:30,4.2,15,4.2,16,13.3,16
2016/3/25 4:31,4,15,4.2,16,3.7,11
2016/3/25 4:32,3.9,15,4,16,6.9,15
2016/3/25 4:33,4.3,15,4.3,15,7.8,15
2016/3/25 4:34,4.4,15,4.4,15,9.5,16
2016/3/25 4:35,4.5,15,4.5,15,8.1,15
2016/3/25 4:36,4.5,14,4.5,15,6.5,14
2016/3/25 4:37,4.4,14,4.5,15,6.4,15
2016/3/25 4:38,4.3,14,4.5,15,4.7,15
2016/3/25 4:39,4,14,4.3,15,2.7,14
2016/3/25 4:40,3.5,14,3.9,15,4.3,10
2016/3/25 4:41,3.4,14,3.5,15,3.3,8
2016/3/25 4:42,3.3,13,3.4,15,2.6,9
2016/3/25 4:43,2.8,13,3.3,15,2,9
2016/3/25 4:44,2.4,12,2.8,15,2.2,9
2016/3/25 4:45,2,12,2.3,15,2.9,11
2016/3/25 4:46,1.7,11,2,14,2,10
2016/3/25 4:47,1.5,11,1.7,14,1.9,10
2016/3/25 4:48,1.5,11,1.5,14,4.1,16
2016/3/25 4:49,1.7,11,1.7,14,6.2,2
2016/3/25 4:50,1.6,12,1.7,14,4.2,2
2016/3/25 4:51,1.6,12,1.6,14,1.9,14
2016/3/25 4:52,1.5,13,1.6,13,4.2,1
2016/3/25 4:53,1.6,14,1.6,13,2.2,6
2016/3/25 4:54,1.6,14,1.6,12,2.4,9
2016/3/25 4:55,1.4,15,1.6,12,1.6,4
2016/3/25 4:56,1.5,16,1.5,11,2.1,16
2016/3/25 4:57,1.5,1,1.5,11,2.4,16
2016/3/25 4:58,1.4,1,1.5,11,3.3,5
2016/3/25 4:59,1.2,15,1.4,11,3.1,9
2016/3/25 5:00,1.1,15,1.2,12,2,15
2016/3/25 5:01,1.2,15,1.2,12,4.5,13
2016/3/25 5:02,1.4,15,1.4,14,6.9,15
2016/3/25 5:03,1.7,15,1.7,15,6.5,16
2016/3/25 5:04,1.8,15,1.8,15,3.6,15
2016/3/25 5:05,2.1,15,2.1,15,4.9,15
2016/3/25 5:06,2.2,15,2.2,15,3.6,14
2016/3/25 5:07,2.4,15,2.4,15,5.5,15
2016/3/25 5:08,2.7,15,2.7,15,7.1,13
2016/3/25 5:09,2.8,15,2.8,15,5.6,16
2016/3/25 5:10,3,15,3,15,6.5,15
2016/3/25 5:11,3.3,15,3.3,15,7.8,15
2016/3/25 5:12,3.4,15,3.5,15,7.6,16
2016/3/25 5:13,3.2,15,3.4,15,3.2,14
2016/3/25 5:14,3.3,15,3.3,15,4.4,15
2016/3/25 5:15,3.3,15,3.3,15,4.8,16
2016/3/25 5:16,3.5,15,3.5,15,6.7,16
2016/3/25 5:17,3.6,15,3.6,15,6.5,16
2016/3/25 5:18,3.5,15,3.6,15,5.8,16
2016/3/25 5:19,3.5,15,3.5,15,3.2,14
2016/3/25 5:20,3.5,15,3.5,15,3.7,15
2016/3/25 5:21,3.1,15,3.4,15,3.3,16
2016/3/25 5:22,2.8,15,3,15,2.1,14
2016/3/25 5:23,2.7,15,2.8,15,2.2,14
2016/3/25 5:24,2.7,15,2.7,15,4.4,13
2016/3/25 5:25,2.5,15,2.7,15,3.3,14
2016/3/25 5:26,2.3,15,2.5,15,3.3,8
2016/3/25 5:27,2.1,14,2.3,15,4.2,8
2016/3/25 5:28,1.9,13,2.1,15,2.2,9
2016/3/25 5:29,1.8,14,1.9,15,2.4,15
2016/3/25 5:30,1.7,13,1.8,15,4.7,15
2016/3/25 5:31,1.7,13,1.7,15,3.6,16
2016/3/25 5:32,1.7,14,1.7,15,1.9,1
2016/3/25 5:33,1.6,14,1.7,15,1.8,15
2016/3/25 5:34,1.5,14,1.6,15,3,16
2016/3/25 5:35,1.6,14,1.6,15,4.3,14
2016/3/25 5:36,1.7,15,1.7,15,4.3,14
2016/3/25 5:37,1.8,15,1.8,14,6,15
2016/3/25 5:38,2.1,15,2.1,15,6,15
2016/3/25 5:39,2.1,15,2.1,15,2,2
2016/3/25 5:40,2,15,2.1,15,2,2
2016/3/25 5:41,2.1,16,2.1,15,5.6,1
2016/3/25 5:42,2.4,15,2.4,15,6.2,15
2016/3/25 5:43,2.7,16,2.7,16,8.3,15
2016/3/25 5:44,2.9,16,2.9,16,6.8,16
2016/3/25 5:45,3.1,16,3.1,16,10.1,14
2016/3/25 5:46,3,16,3.1,16,3.8,16
2016/3/25 5:47,2.9,16,3.1,16,3.6,16
2016/3/25 5:48,2.8,16,2.9,16,5.8,16
2016/3/25 5:49,3,16,3,16,5.8,14
2016/3/25 5:50,3.3,16,3.3,16,4.4,15
2016/3/25 5:51,3.2,16,3.3,16,3.9,16
2016/3/25 5:52,3.3,16,3.3,16,9.1,16
2016/3/25 5:53,3.3,16,3.3,16,7.1,16
2016/3/25 5:54,3.3,16,3.3,16,7.7,15
2016/3/25 5:55,3.2,16,3.3,16,7.1,15
2016/3/25 5:56,3.2,16,3.2,16,3.6,1
2016/3/25 5:57,3.1,16,3.2,16,1.8,8
2016/3/25 5:58,2.9,16,3.1,16,4.4,15
2016/3/25 5:59,2.9,16,2.9,16,4.5,15
2016/3/25 6:00,2.9,16,2.9,16,6.9,16
2016/3/25 6:01,3,16,3,16,5.6,15
2016/3/25 6:02,2.7,15,3,16,4.5,14
2016/3/25 6:03,2.7,15,2.7,16,5.8,1
2016/3/25 6:04,2.8,15,2.8,16,9.7,16
2016/3/25 6:05,2.7,15,2.8,16,6.4,15
2016/3/25 6:06,2.8,15,2.8,16,4.5,15
2016/3/25 6:07,3,15,3,16,5.7,14
2016/3/25 6:08,3,14,3.1,15,4.7,9
2016/3/25 6:09,3.1,14,3.1,15,6.8,13
2016/3/25 6:10,3.2,14,3.2,14,6.2,11
2016/3/25 6:11,3.3,13,3.3,13,5.1,10
2016/3/25 6:12,3.3,13,3.3,13,3.6,10
2016/3/25 6:13,3.2,13,3.3,13,5.1,16
2016/3/25 6:14,2.9,13,3.1,13,5.7,16
2016/3/25 6:15,3,13,3,13,8.2,15
2016/3/25 6:16,3.3,13,3.3,13,8.5,15
2016/3/25 6:17,3.5,13,3.5,13,7.4,14
2016/3/25 6:18,3.7,14,3.7,14,8.3,15
2016/3/25 6:19,3.9,14,3.9,14,7.4,14
2016/3/25 6:20,3.8,14,3.9,14,6.8,1
2016/3/25 6:21,3.9,15,3.9,14,6.9,1
2016/3/25 6:22,3.9,15,4,15,6.2,15
2016/3/25 6:23,4.1,15,4.1,15,6.1,15
2016/3/25 6:24,4.1,15,4.1,15,5.1,16
2016/3/25 6:25,3.8,15,4,15,4.1,14
2016/3/25 6:26,3.5,15,3.8,15,3,15
2016/3/25 6:27,3.3,15,3.4,15,5,15
2016/3/25 6:28,3.4,15,3.4,15,9.3,15
2016/3/25 6:29,3.4,16,3.4,15,8.1,2
2016/3/25 6:30,3.5,15,3.5,15,9,14
2016/3/25 6:31,3.4,15,3.5,15,9.1,14
2016/3/25 6:32,3.6,15,3.6,15,11.4,15
2016/3/25 6:33,3.8,15,3.8,15,11.6,15
2016/3/25 6:34,4,15,4,15,6.5,13
2016/3/25 6:35,4.5,15,4.5,15,12.1,15
2016/3/25 6:36,5,15,5,15,10.9,15
2016/3/25 6:37,5.4,15,5.4,15,11.6,15
2016/3/25 6:38,5.9,15,5.9,15,18.7,15
2016/3/25 6:39,6,15,6.1,15,16.8,16
2016/3/25 6:40,5.8,15,6,15,6.2,15
2016/3/25 6:41,5.8,15,5.8,15,5.7,15
2016/3/25 6:42,5.9,15,6,15,10.1,15
2016/3/25 6:43,5.8,15,5.9,15,8.9,15
2016/3/25 6:44,5.9,15,5.9,15,10.5,14
2016/3/25 6:45,5.6,15,5.9,15,9.9,14
2016/3/25 6:46,5.5,15,5.6,15,11.3,1
2016/3/25 6:47,5.4,15,5.6,15,10.8,16
2016/3/25 6:48,5,15,5.4,15,9.9,15
2016/3/25 6:49,5.3,15,5.3,15,13.8,16
2016/3/25 6:50,5.5,15,5.5,15,9.2,15
2016/3/25 6:51,5.3,15,5.5,15,3.1,16
2016/3/25 6:52,5.1,15,5.3,15,4.2,1
2016/3/25 6:53,5,15,5,15,9.7,16
2016/3/25 6:54,5.2,15,5.2,15,10.3,15
2016/3/25 6:55,5.4,15,5.5,15,11.6,16
2016/3/25 6:56,5,15,5.3,15,6,15
2016/3/25 6:57,4.8,15,5,15,6.4,1
2016/3/25 6:58,4.5,15,4.8,15,5.8,16
2016/3/25 6:59,3.8,15,4.4,15,2.9,12
2016/3/25 7:00,3.6,15,3.7,15,5.2,13
2016/3/25 7:01,3.8,15,3.8,15,5.5,12
2016/3/25 7:02,3.7,15,3.8,15,3.5,15
2016/3/25 7:03,3.4,15,3.7,15,2.6,16
2016/3/25 7:04,2.9,14,3.4,15,2.5,11
2016/3/25 7:05,2.5,14,2.8,15,4.7,12
2016/3/25 7:06,2.4,14,2.5,15,5.1,16
2016/3/25 7:07,2.3,14,2.4,15,4.5,16
2016/3/25 7:08,2.2,14,2.3,15,1.6,1
2016/3/25 7:09,2.3,14,2.3,15,4.1,12
2016/3/25 7:10,2.3,14,2.4,15,6.9,12
2016/3/25 7:11,2.1,14,2.3,15,3.7,11
2016/3/25 7:12,1.9,14,2.1,15,1.5,11
2016/3/25 7:13,2,14,2,14,2.9,3
2016/3/25 7:14,2,15,2,14,3.2,1
2016/3/25 7:15,2.2,16,2.2,14,5.8,1
2016/3/25 7:16,2.3,16,2.3,14,6.8,1
2016/3/25 7:17,2.5,1,2.5,1,6.2,3
2016/3/25 7:18,2.6,1,2.6,1,4.9,1
2016/3/25 7:19,2.4,2,2.6,1,1.9,8
2016/3/25 7:20,2.2,3,2.4,1,2.2,9
2016/3/25 7:21,2.2,4,2.2,1,2,7
2016/3/25 7:22,2.3,3,2.3,1,3.3,14
2016/3/25 7:23,2.6,2,2.6,1,6.9,16
2016/3/25 7:24,2.9,1,2.9,2,6.7,16
2016/3/25 7:25,2.9,1,2.9,2,5.4,16
2016/3/25 7:26,2.7,1,2.9,2,4.9,1
2016/3/25 7:27,2.4,16,2.7,2,2.6,12
2016/3/25 7:28,2.4,16,2.4,2,2.4,6
2016/3/25 7:29,2.5,1,2.5,2,4.5,3
2016/3/25 7:30,2.8,1,2.8,2,9.1,16
2016/3/25 7:31,3.1,1,3.1,1,7,2
2016/3/25 7:32,3.4,1,3.5,1,7.9,1
2016/3/25 7:33,3.3,1,3.4,1,5.6,16
2016/3/25 7:34,3.2,1,3.3,1,6.3,16
2016/3/25 7:35,3.1,1,3.2,1,6,15
2016/3/25 7:36,3.1,1,3.1,1,4.4,1
2016/3/25 7:37,3.2,1,3.2,1,3.9,16
2016/3/25 7:38,3.4,16,3.4,1,6.4,16
2016/3/25 7:39,3.5,16,3.5,1,6.3,16
2016/3/25 7:40,3.7,16,3.7,16,8.1,15
2016/3/25 7:41,3.6,16,3.7,16,7.6,15
2016/3/25 7:42,3.6,16,3.6,16,7.6,16
2016/3/25 7:43,3.7,16,3.7,16,7.4,15
2016/3/25 7:44,3.9,16,3.9,16,10.3,16
2016/3/25 7:45,4,16,4,16,8.4,16
2016/3/25 7:46,4.2,16,4.2,16,5.5,16
2016/3/25 7:47,4.4,16,4.4,16,4.4,1
2016/3/25 7:48,4.1,16,4.3,16,4.1,1
2016/3/25 7:49,4,16,4.1,16,3.6,15
2016/3/25 7:50,3.9,16,4,16,4.8,16
2016/3/25 7:51,3.7,16,3.9,16,5.6,15
2016/3/25 7:52,3.4,16,3.7,16,3.5,15
2016/3/25 7:53,3.5,16,3.5,16,6.8,16
2016/3/25 7:54,3.2,16,3.5,16,6.8,15
2016/3/25 7:55,3.1,16,3.2,16,6.5,16
2016/3/25 7:56,3.1,16,3.2,16,4.8,16
2016/3/25 7:57,3,16,3.1,16,4.2,2
2016/3/25 7:58,3.2,16,3.2,16,4.9,3
2016/3/25 7:59,3.1,16,3.2,16,2.9,5
2016/3/25 8:00,3,16,3.1,16,5.2,16
2016/3/25 8:01,3.2,16,3.2,16,7.5,1
2016/3/25 8:02,3.3,1,3.3,16,5.2,16
2016/3/25 8:03,3.2,1,3.3,16,5.2,2
2016/3/25 8:04,3.1,1,3.2,16,4.2,15
2016/3/25 8:05,2.9,1,3,16,4.1,1
2016/3/25 8:06,2.8,1,2.9,16,3.6,2
2016/3/25 8:07,2.8,1,2.8,16,4.8,2
2016/3/25 8:08,2.7,1,2.8,16,3.5,15
2016/3/25 8:09,2.8,16,2.8,16,4.3,1
2016/3/25 8:10,2.9,16,2.9,16,6.3,1
2016/3/25 8:11,2.9,16,3,16,7.9,1
2016/3/25 8:12,3.1,16,3.1,1,8.7,16
2016/3/25 8:13,3.2,16,3.2,1,7.5,16
2016/3/25 8:14,3.3,16,3.3,16,6.2,1
2016/3/25 8:15,3.4,1,3.4,1,6.4,1
2016/3/25 8:16,3.7,16,3.7,1,8.2,16
2016/3/25 8:17,4,1,4,1,8.3,1
2016/3/25 8:18,4.2,1,4.2,16,6.5,1
2016/3/25 8:19,4.4,16,4.4,16,7.4,16
2016/3/25 8:20,4.4,16,4.5,16,5.8,16
2016/3/25 8:21,4.4,16,4.4,16,5.6,16
2016/3/25 8:22,4.3,16,4.4,16,6.5,16
2016/3/25 8:23,4.2,16,4.3,16,8.3,16
2016/3/25 8:24,4.3,16,4.3,16,7.2,15
2016/3/25 8:25,4.3,16,4.4,16,6.1,16
2016/3/25 8:26,4.2,16,4.3,16,7.7,15
2016/3/25 8:27,4.3,16,4.3,16,8.3,1
2016/3/25 8:28,4.2,16,4.3,16,5.5,16
2016/3/25 8:29,4.1,16,4.2,16,7.2,16
2016/3/25 8:30,4,16,4.1,16,4.8,15
2016/3/25 8:31,4.2,16,4.2,16,8.6,16
2016/3/25 8:32,4.3,16,4.3,16,11.5,16
2016/3/25 8:33,4.5,16,4.5,16,9.2,15
2016/3/25 8:34,4.3,16,4.4,16,6.1,16
2016/3/25 8:35,4.3,16,4.3,16,6.5,1
2016/3/25 8:36,4.3,16,4.3,16,8.5,16
2016/3/25 8:37,4.1,16,4.3,16,7.1,16
2016/3/25 8:38,4.4,16,4.4,16,11.1,15
2016/3/25 8:39,4.3,16,4.4,16,7.2,1
2016/3/25 8:40,4.4,16,4.4,16,6.1,15
2016/3/25 8:41,4.3,16,4.4,16,6.9,15
2016/3/25 8:42,4,16,4.3,16,5.1,16
2016/3/25 8:43,4,16,4,16,7.4,16
2016/3/25 8:44,4.3,16,4.3,16,10.7,16
2016/3/25 8:45,4.2,16,4.2,16,6.5,16
2016/3/25 8:46,4,16,4.2,16,6.7,1
2016/3/25 8:47,3.9,16,4,16,4.9,14
2016/3/25 8:48,3.8,16,3.9,16,8.1,15
2016/3/25 8:49,4,16,4,16,8.7,15
2016/3/25 8:50,4.1,16,4.1,16,8.2,15
2016/3/25 8:51,4,16,4.1,16,8.1,15
2016/3/25 8:52,4.5,16,4.5,16,11.6,14
2016/3/25 8:53,4.3,16,4.5,16,6.9,15
2016/3/25 8:54,4.2,16,4.3,16,7.1,15
2016/3/25 8:55,4.4,16,4.4,16,10,14
2016/3/25 8:56,4.6,16,4.6,16,11.3,15
2016/3/25 8:57,4.6,16,4.7,16,6.4,15
2016/3/25 8:58,4.7,16,4.7,16,8.9,16
2016/3/25 8:59,4.5,16,4.6,16,9,1
2016/3/25 9:00,4.3,16,4.5,16,5.1,1
2016/3/25 9:01,4.2,16,4.3,16,3.5,1
2016/3/25 9:02,3.6,16,4.1,16,3.1,2
2016/3/25 9:03,3.6,16,3.6,16,4.3,15
2016/3/25 9:04,3.3,16,3.5,16,3.2,2
2016/3/25 9:05,3,16,3.3,16,3.5,15
2016/3/25 9:06,2.8,16,2.9,16,5,1
2016/3/25 9:07,3.1,16,3.1,16,9.1,15
2016/3/25 9:08,3.1,16,3.2,16,8.3,16
2016/3/25 9:09,3,16,3.1,16,5.8,1
2016/3/25 9:10,3.1,16,3.1,16,8.1,15
2016/3/25 9:11,3.3,16,3.3,16,7.1,16
2016/3/25 9:12,3.5,16,3.5,16,7.7,16
2016/3/25 9:13,3.7,16,3.7,16,10.7,16
2016/3/25 9:14,4.2,16,4.2,16,8.6,14
2016/3/25 9:15,4.6,16,4.6,16,8.7,16
2016/3/25 9:16,4.7,16,4.7,16,11.3,15
2016/3/25 9:17,4.6,16,4.7,16,10.1,16
2016/3/25 9:18,4.8,16,4.8,16,11.9,16
2016/3/25 9:19,4.8,16,4.8,16,6.5,16
2016/3/25 9:20,5,15,5,15,10.5,15
2016/3/25 9:21,5,15,5.1,15,10.5,16
2016/3/25 9:22,5,15,5,15,7.5,16
2016/3/25 9:23,4.8,15,5,15,6.3,14
2016/3/25 9:24,4.6,15,4.8,15,7.4,16
2016/3/25 9:25,4.3,15,4.6,15,5.2,14
2016/3/25 9:26,4,15,4.3,15,2.7,13
2016/3/25 9:27,3.7,15,3.9,15,3.8,14
2016/3/25 9:28,3.3,15,3.7,15,3.8,15
2016/3/25 9:29,3.6,15,3.6,15,10,14
2016/3/25 9:30,3.6,15,3.7,15,10.2,16
2016/3/25 9:31,3.9,15,3.9,15,10.9,16
2016/3/25 9:32,4.3,15,4.3,15,13.6,16
2016/3/25 9:33,4.5,15,4.5,15,8.9,15
2016/3/25 9:34,4.6,15,4.7,15,9.9,1
2016/3/25 9:35,5,15,5,15,10.5,16
2016/3/25 9:36,5.3,15,5.3,15,8.6,15
2016/3/25 9:37,5.4,15,5.4,15,6.9,15
2016/3/25 9:38,5.7,15,5.7,15,8.9,15
2016/3/25 9:39,5.5,15,5.7,15,8.1,15
2016/3/25 9:40,5.6,15,5.6,15,10.5,15
2016/3/25 9:41,5.4,15,5.7,15,10.3,16
2016/3/25 9:42,5.1,15,5.3,15,9.3,15
2016/3/25 9:43,4.9,15,5.1,15,6.2,15
2016/3/25 9:44,4.6,15,4.9,15,5.5,16
2016/3/25 9:45,4.7,15,4.7,15,13.2,15
2016/3/25 9:46,5.2,15,5.2,15,13.6,16
2016/3/25 9:47,5.4,15,5.4,15,8.7,16
2016/3/25 9:48,5.4,16,5.4,15,8.7,2
2016/3/25 9:49,5.3,15,5.4,15,7.5,15
2016/3/25 9:50,5.3,16,5.3,15,9.5,16
2016/3/25 9:51,5.5,16,5.5,16,9.3,15
2016/3/25 9:52,5.6,16,5.6,16,8.7,1
2016/3/25 9:53,5.6,16,5.6,16,9.5,14
2016/3/25 9:54,5.8,16,5.8,16,7.9,15
2016/3/25 9:55,5.4,16,5.8,16,7.8,16
2016/3/25 9:56,4.8,16,5.4,16,6.7,16
2016/3/25 9:57,4.6,16,4.8,16,6.7,15
2016/3/25 9:58,4.7,16,4.7,16,10.8,16
2016/3/25 9:59,4.7,16,4.8,16,8.1,15
2016/3/25 10:00,4.3,16,4.7,16,3.5,16
2016/3/25 10:01,3.8,15,4.3,16,3.2,14
2016/3/25 10:02,3.6,15,3.8,16,6.3,15
2016/3/25 10:03,3.5,15,3.6,16,8.2,15
2016/3/25 10:04,3.5,15,3.5,16,6.3,15
2016/3/25 10:05,3.6,15,3.6,16,6.5,14
2016/3/25 10:06,3.6,15,3.7,16,6.8,16
2016/3/25 10:07,3.8,15,3.8,16,8.2,16
2016/3/25 10:08,3.8,15,3.9,16,9.4,15
2016/3/25 10:09,3.8,15,3.9,16,9.2,15
2016/3/25 10:10,3.9,15,3.9,16,5.1,2
2016/3/25 10:11,4.1,15,4.1,15,7,2
2016/3/25 10:12,4,15,4.1,15,4.4,1
2016/3/25 10:13,4,15,4,15,6.9,15
2016/3/25 10:14,4.4,15,4.4,15,10.7,15
2016/3/25 10:15,4.5,15,4.5,15,9,15
2016/3/25 10:16,4.9,15,4.9,15,11.3,16
2016/3/25 10:17,4.9,15,5,15,10.1,15
2016/3/25 10:18,4.8,16,4.9,15,6.2,16
2016/3/25 10:19,4.6,16,4.7,15,5.1,1
2016/3/25 10:20,4.7,16,4.8,15,5.5,16
2016/3/25 10:21,4.7,16,4.8,15,6.7,16
2016/3/25 10:22,4.8,16,4.8,15,5.8,16
2016/3/25 10:23,4.7,16,4.8,15,3.8,1
2016/3/25 10:24,4.1,16,4.6,15,4.5,14
2016/3/25 10:25,3.8,16,4.1,15,4.7,1
2016/3/25 10:26,3.4,16,3.8,15,5.2,15
2016/3/25 10:27,3.3,16,3.3,15,6.4,15
2016/3/25 10:28,3.2,16,3.3,16,7,2
2016/3/25 10:29,3.2,16,3.2,16,6.1,1
2016/3/25 10:30,3.3,16,3.3,16,5.8,1
2016/3/25 10:31,3.1,16,3.3,16,4.8,15
2016/3/25 10:32,3.1,16,3.1,16,6.1,15
2016/3/25 10:33,3.2,16,3.2,16,3.9,16
2016/3/25 10:34,3.2,16,3.2,16,5.2,1
2016/3/25 10:35,3.1,16,3.3,16,5.6,16
2016/3/25 10:36,3.1,16,3.1,16,5.2,12
2016/3/25 10:37,3.1,16,3.1,16,4.8,11
2016/3/25 10:38,3,15,3.1,16,3.9,15
2016/3/25 10:39,3,15,3,16,4.9,15
2016/3/25 10:40,2.8,15,3,16,4.1,16
2016/3/25 10:41,2.8,15,2.8,16,5.4,16
2016/3/25 10:42,2.7,15,2.8,16,4.1,15
2016/3/25 10:43,2.8,14,2.8,16,4.8,13
2016/3/25 10:44,2.8,14,2.9,16,5.2,15
2016/3/25 10:45,3,14,3,16,5,14
2016/3/25 10:46,3,14,3.1,16,4.2,12
2016/3/25 10:47,2.7,14,3,16,2.9,12
2016/3/25 10:48,2.6,14,2.7,14,1.5,8
2016/3/25 10:49,2.4,13,2.5,14,3.9,14
2016/3/25 10:50,2.4,14,2.4,14,2.7,16
2016/3/25 10:51,2.3,13,2.3,14,2.6,4
2016/3/25 10:52,2,13,2.2,14,1.5,11
2016/3/25 10:53,2,12,2,14,4.3,13
2016/3/25 10:54,1.9,12,2,14,3.2,14
2016/3/25 10:55,1.6,11,1.8,14,2.9,12
2016/3/25 10:56,1.5,13,1.6,14,3,15